This is the latest recevied weather packets stored in our database for station/object AD8PA-13. If no packets are shown the sender has not sent any weather packets the latest 10 day(s).
| Time | Temp. | Humidity | Pressure | Rain* | Wind** | Luminosity | Snow |
|---|---|---|---|---|---|---|---|
| 1777486506 | 11.11° C | 76% | 1011.7 hPa | 0 mm | - | - | - |
| 1777485602 | 11.11° C | 80% | 1011.5 hPa | 0 mm | - | - | - |
| 1777484698 | 11.11° C | 83% | 1011.8 hPa | 0 mm | - | - | - |
| 1777483792 | 11.11° C | 83% | 1011.8 hPa | 0 mm | - | - | - |
| 1777482887 | 11.11° C | 82% | 1012 hPa | 0 mm | - | - | - |
| 1777481983 | 10° C | 86% | 1012 hPa | 0 mm | - | - | - |
| 1777481079 | 9.44° C | 85% | 1012.6 hPa | 0 mm | - | - | - |
| 1777480175 | 10° C | 89% | 1012.4 hPa | 0 mm | - | - | - |
| 1777479272 | 9.44° C | 90% | 1012.7 hPa | 0 mm | - | - | - |
| 1777478368 | 8.89° C | 89% | 1012.6 hPa | 0 mm | - | - | - |
| 1777477468 | 8.89° C | 91% | 1012.8 hPa | 0 mm | - | - | - |
| 1777476565 | 8.33° C | 91% | 1013 hPa | 0 mm | - | - | - |
| 1777475665 | 8.33° C | 91% | 1012.8 hPa | 0 mm | - | - | - |
| 1777474765 | 8.33° C | 92% | 1013.1 hPa | 0 mm | - | - | - |
| 1777473861 | 8.33° C | 92% | 1013.2 hPa | 0 mm | - | - | - |
| 1777472960 | 8.33° C | 91% | 1013.1 hPa | 0 mm | - | - | - |
| 1777472058 | 8.89° C | 93% | 1013.3 hPa | 0 mm | - | - | - |
| 1777471158 | 8.33° C | 94% | 1013.2 hPa | 0 mm | - | - | - |
| 1777470254 | 8.33° C | 93% | 1013.4 hPa | 0 mm | - | - | - |
| 1777469353 | 8.33° C | 94% | 1013.4 hPa | 0 mm | - | - | - |
| 1777468452 | 7.78° C | 94% | 1013.5 hPa | 0 mm | - | - | - |
| 1777467546 | 7.78° C | 95% | 1013.8 hPa | 0 mm | - | - | - |
| 1777466642 | 7.78° C | 95% | 1013.6 hPa | 0 mm | - | - | - |
| 1777465736 | 7.78° C | 94% | 1014.1 hPa | 1.27 mm | - | - | - |
| 1777464832 | 7.78° C | 94% | 1013.9 hPa | 1.78 mm | - | - | - |
* Rain latest hour (hover to see other rain measurements)
** Current wind speed in m/s (hover to see current wind gust speed)